Starlink 3089

operational
NORAD ID: 49166 Int'l Des: 2021-082 Owner: SPXS Country: US Constellation: starlink
LEOCIRCULAR

About Starlink 3089

Description loading...

Live Position

Loading 3D Globe...

Upcoming Passes

Altitude History

Altitude vs Time

uPlot chart will show altitude changes over time

Two-Line Element Set

1 49166U 21082AN 26063.03228070 .00000567 00000-0 56432-4 0 9990
2 49166 69.9983 289.4916 0002620 270.6840 89.4018 14.97527765246801
Epoch: Mar 4, 2026 • Age: 19 hours

Current Status

Altitude 576.9 km
Velocity 7.57 km/s
Sub-Earth Point 0.99°N, 16.57°E
Launch Date Sep 14, 2021
Age 4.4 years
Type internet

Technical Details

Classification Payload
Mass 297.00 kg
Dry Mass 275.00 kg
Total Mass 297.00 kg
Length 0.20 m
Diameter 2.80 m
Span 9.00 m
Shape Box + pan
Manufacturer SPXS
Bus Type Starlink
Phase Status In Orbit
Owner/State SPXS/US

Large Constellations

Loading constellations...